Regional Weather Roundup
Issued by NWS

Home | Current Version | Previous Version | Graphics & Text | Print | Product List | Glossary On
Versions: 1 2 3 4 5 6 7 8 9 10 11 12 13 14 15 16 17 18 19 20 21 22 23 24 25 26 27 28 29 30 31 32 33 34 35 36 37 38 39 40 41 42 43 44 45 46 47 48 49 50
000
ASUS43 KIND 271759
RWRIN

WEATHER ROUNDUP FOR INDIANA
NATIONAL WEATHER SERVICE INDIANAPOLIS IN
100 PM EST FRI FEB 27 2015

NOTE: "FAIR" INDICATES FEW OR NO CLOUDS BELOW 12,000 FEET WITH NO
SIGNIFICANT WEATHER AND/OR OBSTRUCTIONS TO VISIBILITY.

* - STATION DOES NOT REPORT WEATHER SUCH AS PRECIPITATION OR FOG.

+ - STATION NOT QUALITY CONTROLLED BY THE NATIONAL WEATHER SERVICE.
    USE DATA WITH CAUTION...ESPECIALLY DEWPOINT AND RELATIVE
    HUMIDITY OBSERVATIONS.

INZ001>003-010>013-019-020-271900-
NORTHWEST INDIANA

CITY           SKY/WX    TMP DP  RH WIND       PRES   REMARKS
GARY /AIRPORT/ SUNNY     18  -8  32 W12       30.62S WCI   5
VALPARAISO     NOT AVBL

$$

LMZ046-743>745-271900-
SOUTHERN LAKE MICHIGAN

STATION/POSITION TIME  TEMP WIND        PRES
                       AIR  DIR/SP/G
                 (UTC) (F)  (DEG/KT/KT) (MB)
MICHIGAN CITY    1700   11  220/ 11/ 12   N/A

$$

INZ004-005-014>016-021>024-271900-
NORTH CENTRAL INDIANA

CITY           SKY/WX    TMP DP  RH WIND       PRES   REMARKS
ELKHART        PTSUNNY   16  -2  45 W10       30.59S WCI   3
GOSHEN         SUNNY     14  -1  51 W8        30.58S WCI   3
6HR MIN TEMP: -10; 6HR MAX TEMP:  14;

SOUTH BEND     MOSUNNY   17   4  56 SW10      30.59S WCI   5
6HR MIN TEMP:  -7; 6HR MAX TEMP:  17;


$$

INZ006>009-017-018-025>027-271900-
NORTHEAST INDIANA

CITY           SKY/WX    TMP DP  RH WIND       PRES   REMARKS
ANGOLA *+      SUNNY     16  -4  41 W6        30.56R WCI   7
FORT WAYNE     MOSUNNY   17  -2  43 W6        30.59S WCI   9
6HR MIN TEMP:  -4; 6HR MAX TEMP:  17;


$$

INZ028-029-035-036-043>045-051>053-271900-
WEST CENTRAL INDIANA

CITY           SKY/WX    TMP DP  RH WIND       PRES   REMARKS
CRAWFORDSVL +  SUNNY     12  -8  39 NW5       30.63R WCI   4
6HR MIN TEMP:  -4; 6HR MAX TEMP:  12;

GREENCASTLE +  MOSUNNY   16  -4  41 N3        30.62S
LAFAYETTE      SUNNY     14  -2  49 NW7       30.63S WCI   4
6HR MIN TEMP:  -5; 6HR MAX TEMP:  15;

TERRE HAUTE    SUNNY     16  -1  47 N7        30.64F WCI   6
6HR MIN TEMP:   5; 6HR MAX TEMP:  16;


$$

INZ030>032-037>040-046>048-054>057-064-065-271900-
CENTRAL INDIANA

CITY           SKY/WX    TMP DP  RH WIND       PRES   REMARKS
ANDERSON       MOSUNNY   16   1  53 NW12      30.60S WCI   3
COLUMBUS       MOSUNNY   18   3  53 E3        30.63
GREENWOOD *+   SUNNY     18  -2  41 NW9       30.61S WCI   6
INDIANAPOLIS   MOSUNNY   16  -1  47 W7        30.61R WCI   6
6HR MIN TEMP:   2; 6HR MAX TEMP:  16;

-EAGLE CREEK   SUNNY     15   0  51 NW9       30.61S WCI   3
6HR MIN TEMP:   2; 6HR MAX TEMP:  15;

KOKOMO *+      SUNNY     14   7  73 W12       30.61S WCI   0
6HR MIN TEMP:   0; 6HR MAX TEMP:  14;

MT COMFORT *+  SUNNY     19  -9  27 W12       30.60S WCI   7
SHELBYVILLE    SUNNY     17   5  59 SW6       30.60F WCI   9
6HR MIN TEMP:  -7; 6HR MAX TEMP:  17; 6HR PCP: TRACE;


$$

INZ033-034-041-042-049-050-058-059-271900-
EAST CENTRAL INDIANA

CITY           SKY/WX    TMP DP  RH WIND       PRES   REMARKS
MUNCIE         SUNNY     15   2  56 W9        30.59S WCI   3
6HR MIN TEMP:  -2; 6HR MAX TEMP:  15;


$$

INZ060-061-067>069-081>083-085>088-271900-
SOUTHWEST INDIANA

CITY           SKY/WX    TMP DP  RH WIND       PRES   REMARKS
EVANSVILLE     MOSUNNY   22   9  57 NE6       30.66R WCI  14
6HR MIN TEMP:  12; 6HR MAX TEMP:  22;

HUNTINGBURG *+ SUNNY     19   9  63 N5        30.64S WCI  13
6HR MIN TEMP:   7; 6HR MAX TEMP:  21;


$$

INZ062-063-066-070>080-084-089>092-271900-
SOUTH CENTRAL AND SOUTHEAST INDIANA

CITY           SKY/WX    TMP DP  RH WIND       PRES   REMARKS
BLOOMINGTON    CLOUDY    19   2  47 VRB6      30.60S WCI  11
6HR MIN TEMP:  -9; 6HR MAX TEMP:  21; 6HR PCP: TRACE;

SEYMOUR +      FAIR      25   7  46 CALM      30.63F

$$



USA.gov is the U.S. government's official web portal to all federal, state and local government web resources and services.